Time,TemperatureF,DewpointF,PressureIn,WindDirection,WindDirectionDegrees,WindSpeedMPH,WindSpeedGustMPH,Humidity,HourlyPrecipIn,Conditions,Clouds,dailyrainin,SoftwareType,DateUTC
2013-02-17 00:05:00,40.4,1.3,30.17,SW,217,1.0,4.0,19,0.09,,,0.82,Wunderground v.1.15,2013-02-17 08:05:00,
2013-02-17 00:10:00,40.4,0.2,30.17,SE,145,1.0,4.0,18,0.05,,,0.82,Wunderground v.1.15,2013-02-17 08:10:00,
2013-02-17 00:15:00,40.3,0.1,30.17,SE,145,1.0,4.0,18,0.04,,,0.82,Wunderground v.1.15,2013-02-17 08:15:00,
2013-02-17 00:20:00,40.3,-1.1,30.18,SE,146,0.0,4.0,17,0.00,,,0.82,Wunderground v.1.15,2013-02-17 08:20:00,
2013-02-17 00:24:00,40.3,-1.1,30.18,SSE,162,0.0,4.0,17,0.00,,,0.82,Wunderground v.1.15,2013-02-17 08:24:00,
2013-02-17 00:30:00,40.3,-2.4,30.18,SE,143,0.0,4.0,16,0.00,,,0.00,Wunderground v.1.15,2013-02-17 08:30:00,
2013-02-17 00:35:00,40.3,-2.4,30.18,SSE,153,1.0,4.0,16,0.00,,,0.00,Wunderground v.1.15,2013-02-17 08:35:00,
2013-02-17 00:40:00,40.3,-2.4,30.18,SSE,155,1.0,1.0,16,0.06,,,0.01,Wunderground v.1.15,2013-02-17 08:40:00,
2013-02-17 00:45:00,40.2,-3.9,30.18,SSW,198,1.0,4.0,15,0.06,,,0.01,Wunderground v.1.15,2013-02-17 08:45:00,
2013-02-17 00:50:00,40.2,-3.9,30.18,SSE,152,0.0,4.0,15,0.05,,,0.01,Wunderground v.1.15,2013-02-17 08:50:00,
2013-02-17 00:59:00,40.2,-3.9,30.19,SE,141,1.0,4.0,15,0.12,,,0.03,Wunderground v.1.15,2013-02-17 08:59:00,
2013-02-17 01:05:00,40.2,-3.9,30.19,SSW,208,1.0,4.0,15,0.20,,,0.05,Wunderground v.1.15,2013-02-17 09:05:00,
2013-02-17 01:10:00,40.1,-3.9,30.19,SSW,204,1.0,1.0,15,0.22,,,0.06,Wunderground v.1.15,2013-02-17 09:10:00,
2013-02-17 01:15:00,40.1,-3.9,30.19,SW,214,1.0,4.0,15,0.13,,,0.07,Wunderground v.1.15,2013-02-17 09:15:00,
2013-02-17 01:20:00,40.1,-5.4,30.19,SSE,158,0.0,4.0,14,0.17,,,0.09,Wunderground v.1.15,2013-02-17 09:20:00,
2013-02-17 01:25:00,40.0,-4.0,30.19,SSW,204,1.0,4.0,15,0.27,,,0.11,Wunderground v.1.15,2013-02-17 09:25:00,
2013-02-17 01:30:00,39.9,-4.1,30.19,WSW,250,2.0,2.0,15,0.19,,,0.12,Wunderground v.1.15,2013-02-17 09:30:00,
2013-02-17 01:35:00,39.8,-4.2,30.19,SW,228,1.0,4.0,15,0.19,,,0.14,Wunderground v.1.15,2013-02-17 09:35:00,
2013-02-17 01:40:00,39.7,-4.3,30.20,SW,221,2.0,2.0,15,0.20,,,0.16,Wunderground v.1.15,2013-02-17 09:40:00,
2013-02-17 01:45:00,39.7,-2.9,30.20,SW,228,1.0,4.0,16,0.24,,,0.17,Wunderground v.1.15,2013-02-17 09:45:00,
2013-02-17 01:50:00,39.6,-3.0,30.20,NNE,15,1.0,4.0,16,0.17,,,0.19,Wunderground v.1.15,2013-02-17 09:50:00,
2013-02-17 01:55:00,39.6,-3.0,30.20,SSW,205,1.0,4.0,16,0.14,,,0.21,Wunderground v.1.15,2013-02-17 09:55:00,
2013-02-17 02:00:00,39.5,-3.1,30.20,WSW,252,1.0,1.0,16,0.15,,,0.22,Wunderground v.1.15,2013-02-17 10:00:00,
2013-02-17 02:05:00,39.5,-3.1,30.20,SW,215,1.0,4.0,16,0.22,,,0.24,Wunderground v.1.15,2013-02-17 10:05:00,
2013-02-17 02:10:00,39.5,-4.4,30.20,SSE,152,0.0,4.0,15,0.27,,,0.26,Wunderground v.1.15,2013-02-17 10:10:00,
2013-02-17 02:15:00,39.2,-3.3,30.20,SE,131,1.0,4.0,16,0.18,,,0.27,Wunderground v.1.15,2013-02-17 10:15:00,
2013-02-17 02:20:00,39.1,-2.1,30.20,South,191,1.0,1.0,17,0.13,,,0.28,Wunderground v.1.15,2013-02-17 10:20:00,
2013-02-17 02:25:00,39.0,-2.2,30.20,SW,217,1.0,4.0,17,0.10,,,0.29,Wunderground v.1.15,2013-02-17 10:25:00,
2013-02-17 02:30:00,38.9,-1.1,30.20,SW,225,1.0,4.0,18,0.07,,,0.29,Wunderground v.1.15,2013-02-17 10:30:00,
2013-02-17 02:35:00,38.9,-2.3,30.20,SSW,211,1.0,4.0,17,0.05,,,0.30,Wunderground v.1.15,2013-02-17 10:35:00,
2013-02-17 02:40:00,38.8,-2.4,30.20,SSW,205,1.0,1.0,17,0.08,,,0.31,Wunderground v.1.15,2013-02-17 10:40:00,
2013-02-17 02:45:00,38.8,-2.4,30.20,SSW,208,0.0,4.0,17,0.08,,,0.31,Wunderground v.1.15,2013-02-17 10:45:00,
2013-02-17 02:55:00,38.6,-2.5,30.20,WSW,237,1.0,4.0,17,0.07,,,0.32,Wunderground v.1.15,2013-02-17 10:55:00,
2013-02-17 03:00:00,38.5,-2.6,30.20,SE,127,0.0,4.0,17,0.06,,,0.33,Wunderground v.1.15,2013-02-17 11:00:00,
2013-02-17 03:05:00,38.5,-2.6,30.20,West,271,0.0,4.0,17,0.06,,,0.33,Wunderground v.1.15,2013-02-17 11:05:00,
2013-02-17 03:10:00,38.4,-2.7,30.20,WSW,256,0.0,4.0,17,0.05,,,0.33,Wunderground v.1.15,2013-02-17 11:10:00,
2013-02-17 03:15:00,38.4,-2.7,30.20,SE,145,0.0,4.0,17,0.05,,,0.34,Wunderground v.1.15,2013-02-17 11:15:00,
2013-02-17 03:20:00,38.3,-2.8,30.20,West,277,0.0,4.0,17,0.06,,,0.35,Wunderground v.1.15,2013-02-17 11:20:00,
2013-02-17 03:25:00,38.3,-2.8,30.20,West,277,0.0,4.0,17,0.06,,,0.35,Wunderground v.1.15,2013-02-17 11:25:00,
2013-02-17 03:30:00,38.3,-2.8,30.20,West,277,0.0,4.0,17,0.10,,,0.36,Wunderground v.1.15,2013-02-17 11:30:00,
2013-02-17 03:35:00,38.2,-2.9,30.20,West,277,0.0,4.0,17,0.14,,,0.37,Wunderground v.1.15,2013-02-17 11:35:00,
2013-02-17 03:40:00,38.3,-2.8,30.20,West,277,0.0,4.0,17,0.18,,,0.39,Wunderground v.1.15,2013-02-17 11:40:00,
2013-02-17 03:45:00,38.2,-4.1,30.20,West,277,0.0,4.0,16,0.14,,,0.40,Wunderground v.1.15,2013-02-17 11:45:00,
2013-02-17 03:50:00,38.2,-4.1,30.20,West,277,0.0,4.0,16,0.09,,,0.41,Wunderground v.1.15,2013-02-17 11:50:00,
2013-02-17 03:55:00,38.2,-4.1,30.20,SW,215,0.0,4.0,16,0.08,,,0.42,Wunderground v.1.15,2013-02-17 11:55:00,
2013-02-17 04:00:00,38.1,-4.2,30.20,West,277,0.0,4.0,16,0.08,,,0.42,Wunderground v.1.15,2013-02-17 12:00:00,
2013-02-17 04:05:00,38.1,-4.2,30.20,WNW,286,0.0,4.0,16,0.10,,,0.43,Wunderground v.1.15,2013-02-17 12:05:00,
2013-02-17 04:10:00,38.2,-4.1,30.20,SSE,166,0.0,4.0,16,0.08,,,0.44,Wunderground v.1.15,2013-02-17 12:10:00,
2013-02-17 04:15:00,38.1,-4.2,30.20,SSE,167,0.0,4.0,16,0.08,,,0.44,Wunderground v.1.15,2013-02-17 12:15:00,
2013-02-17 04:20:00,38.1,-4.2,30.21,SSW,200,0.0,4.0,16,0.07,,,0.45,Wunderground v.1.15,2013-02-17 12:20:00,
2013-02-17 04:25:00,38.1,-4.2,30.21,WSW,248,1.0,4.0,16,0.09,,,0.46,Wunderground v.1.15,2013-02-17 12:25:00,
2013-02-17 04:30:00,38.0,-4.3,30.21,SW,222,1.0,1.0,16,0.09,,,0.46,Wunderground v.1.15,2013-02-17 12:30:00,
2013-02-17 04:35:00,38.0,-4.3,30.21,SE,146,1.0,4.0,16,0.10,,,0.47,Wunderground v.1.15,2013-02-17 12:35:00,
2013-02-17 04:40:00,38.0,-4.3,30.20,ESE,108,1.0,1.0,16,0.06,,,0.47,Wunderground v.1.15,2013-02-17 12:40:00,
2013-02-17 04:45:00,38.0,-4.3,30.20,ESE,107,0.0,4.0,16,0.06,,,0.48,Wunderground v.1.15,2013-02-17 12:45:00,
2013-02-17 04:50:00,38.0,-4.3,30.21,ESE,108,0.0,4.0,16,0.06,,,0.48,Wunderground v.1.15,2013-02-17 12:50:00,
2013-02-17 04:55:00,38.0,-4.3,30.21,ESE,105,0.0,4.0,16,0.04,,,0.48,Wunderground v.1.15,2013-02-17 12:55:00,
2013-02-17 05:00:00,38.0,-4.3,30.21,ESE,110,1.0,1.0,16,0.00,,,0.48,Wunderground v.1.15,2013-02-17 13:00:00,
2013-02-17 05:05:00,38.0,-4.3,30.21,SW,222,1.0,4.0,16,0.00,,,0.49,Wunderground v.1.15,2013-02-17 13:05:00,
2013-02-17 05:10:00,37.9,-4.4,30.21,SW,231,1.0,4.0,16,0.00,,,0.49,Wunderground v.1.15,2013-02-17 13:10:00,
2013-02-17 05:15:00,37.9,-4.4,30.20,ESE,118,0.0,4.0,16,0.00,,,0.49,Wunderground v.1.15,2013-02-17 13:15:00,
2013-02-17 05:20:00,37.9,-4.4,30.21,WSW,250,1.0,4.0,16,0.00,,,0.49,Wunderground v.1.15,2013-02-17 13:20:00,
2013-02-17 05:25:00,37.9,-4.4,30.21,WSW,249,0.0,4.0,16,0.00,,,0.49,Wunderground v.1.15,2013-02-17 13:25:00,
2013-02-17 05:30:00,37.9,-4.4,30.21,WSW,249,0.0,4.0,16,0.00,,,0.49,Wunderground v.1.15,2013-02-17 13:30:00,
2013-02-17 05:35:00,38.0,-4.3,30.21,WSW,249,0.0,4.0,16,0.00,,,0.50,Wunderground v.1.15,2013-02-17 13:35:00,
2013-02-17 05:40:00,37.9,-4.4,30.21,WSW,249,0.0,4.0,16,0.00,,,0.50,Wunderground v.1.15,2013-02-17 13:40:00,
2013-02-17 05:45:00,37.9,-4.4,30.21,WSW,249,0.0,4.0,16,0.06,,,0.51,Wunderground v.1.15,2013-02-17 13:45:00,
2013-02-17 05:50:00,37.9,-4.4,30.21,WSW,249,0.0,4.0,16,0.12,,,0.52,Wunderground v.1.15,2013-02-17 13:50:00,
2013-02-17 05:55:00,37.9,-4.4,30.21,WSW,249,0.0,4.0,16,0.09,,,0.53,Wunderground v.1.15,2013-02-17 13:55:00,
2013-02-17 06:00:00,37.9,-4.4,30.21,SSW,198,0.0,4.0,16,0.12,,,0.54,Wunderground v.1.15,2013-02-17 14:00:00,
2013-02-17 06:05:00,37.8,-4.5,30.22,SW,222,1.0,4.0,16,0.11,,,0.55,Wunderground v.1.15,2013-02-17 14:05:00,
2013-02-17 06:10:00,37.8,-4.5,30.22,WNW,283,1.0,4.0,16,0.36,,,0.57,Wunderground v.1.15,2013-02-17 14:10:00,
2013-02-17 06:15:00,37.7,-4.6,30.21,NNW,336,0.0,4.0,16,0.17,,,0.58,Wunderground v.1.15,2013-02-17 14:15:00,
2013-02-17 06:20:00,37.6,-3.4,30.21,NNW,336,0.0,4.0,17,0.13,,,0.59,Wunderground v.1.15,2013-02-17 14:20:00,
2013-02-17 06:25:00,37.6,-3.4,30.21,NNW,335,0.0,4.0,17,0.11,,,0.60,Wunderground v.1.15,2013-02-17 14:25:00,
2013-02-17 06:30:00,37.6,-3.4,30.21,NNW,336,0.0,4.0,17,0.12,,,0.61,Wunderground v.1.15,2013-02-17 14:30:00,
2013-02-17 06:35:00,37.4,-3.5,30.21,NE,47,0.0,4.0,17,0.12,,,0.62,Wunderground v.1.15,2013-02-17 14:35:00,
2013-02-17 06:40:00,37.2,-3.7,30.21,NE,47,0.0,4.0,17,0.11,,,0.63,Wunderground v.1.15,2013-02-17 14:40:00,
2013-02-17 06:45:00,37.1,-3.8,30.21,NE,47,0.0,4.0,17,0.07,,,0.63,Wunderground v.1.15,2013-02-17 14:45:00,
2013-02-17 06:50:00,37.0,-3.9,30.21,NE,42,0.0,4.0,17,0.07,,,0.64,Wunderground v.1.15,2013-02-17 14:50:00,
2013-02-17 06:55:00,36.8,-2.8,30.21,NE,46,0.0,4.0,18,0.10,,,0.65,Wunderground v.1.15,2013-02-17 14:55:00,
2013-02-17 07:00:00,36.7,-2.9,30.20,NE,46,0.0,4.0,18,0.12,,,0.66,Wunderground v.1.15,2013-02-17 15:00:00,
2013-02-17 07:10:00,36.5,-3.1,30.20,NE,46,0.0,4.0,18,0.07,,,0.68,Wunderground v.1.15,2013-02-17 15:10:00,
2013-02-17 07:15:00,36.5,-3.1,30.21,ENE,65,0.0,4.0,18,0.07,,,0.68,Wunderground v.1.15,2013-02-17 15:15:00,
2013-02-17 07:20:00,36.5,-3.1,30.20,ENE,65,0.0,4.0,18,0.06,,,0.68,Wunderground v.1.15,2013-02-17 15:20:00,
2013-02-17 07:25:00,36.4,-3.2,30.21,North,4,0.0,4.0,18,0.04,,,0.68,Wunderground v.1.15,2013-02-17 15:25:00,
2013-02-17 07:30:00,36.5,-3.1,30.21,North,4,1.0,1.0,18,0.00,,,0.68,Wunderground v.1.15,2013-02-17 15:30:00,
2013-02-17 07:35:00,36.4,-3.2,30.21,NW,312,0.0,4.0,18,0.00,,,0.69,Wunderground v.1.15,2013-02-17 15:35:00,
2013-02-17 07:40:00,36.4,-3.2,30.21,NNE,30,0.0,4.0,18,0.00,,,0.69,Wunderground v.1.15,2013-02-17 15:40:00,
2013-02-17 07:45:00,36.4,-3.2,30.21,ENE,70,1.0,4.0,18,0.07,,,0.70,Wunderground v.1.15,2013-02-17 15:45:00,
2013-02-17 07:50:00,36.5,-3.1,30.21,NNW,334,1.0,1.0,18,0.06,,,0.70,Wunderground v.1.15,2013-02-17 15:50:00,
2013-02-17 07:55:00,36.5,-3.1,30.21,West,267,0.0,4.0,18,0.04,,,0.70,Wunderground v.1.15,2013-02-17 15:55:00,
2013-02-17 08:00:00,36.5,-3.1,30.21,NNE,30,0.0,4.0,18,0.04,,,0.71,Wunderground v.1.15,2013-02-17 16:00:00,
2013-02-17 08:05:00,36.6,-4.2,30.21,NNE,33,1.0,4.0,17,0.04,,,0.71,Wunderground v.1.15,2013-02-17 16:05:00,
2013-02-17 08:10:00,36.7,-4.1,30.22,NW,316,1.0,1.0,17,0.04,,,0.71,Wunderground v.1.15,2013-02-17 16:10:00,
2013-02-17 08:15:00,36.7,-4.1,30.22,NE,40,0.0,4.0,17,0.00,,,0.71,Wunderground v.1.15,2013-02-17 16:15:00,
2013-02-17 08:20:00,36.8,-4.0,30.22,NE,40,0.0,4.0,17,0.00,,,0.71,Wunderground v.1.15,2013-02-17 16:20:00,
2013-02-17 08:25:00,36.9,-3.9,30.22,NE,50,0.0,4.0,17,0.00,,,0.71,Wunderground v.1.15,2013-02-17 16:25:00,
2013-02-17 08:30:00,37.1,-3.8,30.22,ENE,60,1.0,1.0,17,0.00,,,0.71,Wunderground v.1.15,2013-02-17 16:30:00,
2013-02-17 08:35:00,37.1,-3.8,30.22,North,358,1.0,4.0,17,0.00,,,0.71,Wunderground v.1.15,2013-02-17 16:35:00,
2013-02-17 08:40:00,37.3,-3.6,30.22,North,359,0.0,4.0,17,0.00,,,0.71,Wunderground v.1.15,2013-02-17 16:40:00,
2013-02-17 08:45:00,37.4,-3.5,30.22,North,8,0.0,4.0,17,0.00,,,0.72,Wunderground v.1.15,2013-02-17 16:45:00,
2013-02-17 08:50:00,37.5,-3.5,30.22,NNE,16,0.0,4.0,17,0.00,,,0.72,Wunderground v.1.15,2013-02-17 16:50:00,
2013-02-17 08:55:00,37.6,-3.4,30.23,NNE,16,0.0,4.0,17,0.00,,,0.72,Wunderground v.1.15,2013-02-17 16:55:00,
2013-02-17 09:00:00,37.7,-3.3,30.23,NNE,16,0.0,4.0,17,0.00,,,0.72,Wunderground v.1.15,2013-02-17 17:00:00,
2013-02-17 09:10:00,37.9,-3.1,30.23,NE,43,0.0,4.0,17,0.00,,,0.72,Wunderground v.1.15,2013-02-17 17:10:00,
2013-02-17 09:15:00,38.0,-3.0,30.23,SSW,203,0.0,4.0,17,0.00,,,0.72,Wunderground v.1.15,2013-02-17 17:15:00,
2013-02-17 09:20:00,38.0,-3.0,30.23,SSW,203,0.0,4.0,17,0.00,,,0.73,Wunderground v.1.15,2013-02-17 17:20:00,
2013-02-17 09:25:00,38.1,-3.0,30.23,SSW,202,0.0,4.0,17,0.00,,,0.73,Wunderground v.1.15,2013-02-17 17:25:00,
2013-02-17 09:30:00,38.2,-2.9,30.23,SSW,203,0.0,4.0,17,0.00,,,0.73,Wunderground v.1.15,2013-02-17 17:30:00,
2013-02-17 09:35:00,38.2,-2.9,30.23,SSW,203,0.0,4.0,17,0.00,,,0.73,Wunderground v.1.15,2013-02-17 17:35:00,
2013-02-17 09:40:00,38.3,-2.8,30.23,NE,53,0.0,4.0,17,0.00,,,0.74,Wunderground v.1.15,2013-02-17 17:40:00,
2013-02-17 09:45:00,38.2,-2.9,30.23,SSE,163,0.0,4.0,17,0.10,,,0.75,Wunderground v.1.15,2013-02-17 17:45:00,
2013-02-17 09:50:00,38.1,-3.0,30.24,WSW,239,0.0,4.0,17,0.10,,,0.76,Wunderground v.1.15,2013-02-17 17:50:00,
2013-02-17 09:55:00,38.3,-4.1,30.24,NE,37,0.0,4.0,16,0.08,,,0.76,Wunderground v.1.15,2013-02-17 17:55:00,
2013-02-17 10:00:00,38.3,-4.1,30.24,NE,37,0.0,4.0,16,0.05,,,0.76,Wunderground v.1.15,2013-02-17 18:00:00,
2013-02-17 10:05:00,38.2,-4.1,30.24,NE,37,0.0,4.0,16,0.04,,,0.77,Wunderground v.1.15,2013-02-17 18:05:00,
2013-02-17 10:10:00,38.2,-4.1,30.24,ENE,60,0.0,4.0,16,0.04,,,0.77,Wunderground v.1.15,2013-02-17 18:10:00,
2013-02-17 10:15:00,38.1,-4.2,30.24,South,191,0.0,4.0,16,0.06,,,0.78,Wunderground v.1.15,2013-02-17 18:15:00,
2013-02-17 10:20:00,38.1,-4.2,30.24,South,190,0.0,4.0,16,0.09,,,0.79,Wunderground v.1.15,2013-02-17 18:20:00,
2013-02-17 10:25:00,38.1,-4.2,30.24,South,188,0.0,4.0,16,0.10,,,0.80,Wunderground v.1.15,2013-02-17 18:25:00,
2013-02-17 10:35:00,38.4,-4.0,30.24,SE,139,0.0,4.0,16,0.08,,,0.81,Wunderground v.1.15,2013-02-17 18:35:00,
2013-02-17 10:40:00,38.5,-3.9,30.24,SE,139,0.0,4.0,16,0.06,,,0.81,Wunderground v.1.15,2013-02-17 18:40:00,
2013-02-17 10:45:00,38.6,-5.2,30.24,SE,141,0.0,4.0,15,0.04,,,0.81,Wunderground v.1.15,2013-02-17 18:45:00,
2013-02-17 10:50:00,38.8,-5.0,30.24,SE,139,0.0,4.0,15,0.00,,,0.82,Wunderground v.1.15,2013-02-17 18:50:00,
2013-02-17 10:55:00,38.7,-5.1,30.24,SE,141,0.0,4.0,15,0.00,,,0.82,Wunderground v.1.15,2013-02-17 18:55:00,
2013-02-17 11:00:00,38.7,-3.7,30.24,SE,139,0.0,4.0,16,0.07,,,0.83,Wunderground v.1.15,2013-02-17 19:00:00,
2013-02-17 11:05:00,38.8,-5.0,30.24,SE,139,0.0,4.0,15,0.10,,,0.84,Wunderground v.1.15,2013-02-17 19:05:00,
2013-02-17 11:10:00,38.8,-3.7,30.24,WNW,294,0.0,4.0,16,0.09,,,0.85,Wunderground v.1.15,2013-02-17 19:10:00,
2013-02-17 11:15:00,38.6,-3.8,30.24,NE,41,0.0,4.0,16,0.11,,,0.85,Wunderground v.1.15,2013-02-17 19:15:00,
2013-02-17 11:20:00,38.6,-2.5,30.24,NNW,329,1.0,1.0,17,0.19,,,0.87,Wunderground v.1.15,2013-02-17 19:20:00,
2013-02-17 11:25:00,38.5,-2.6,30.24,NNW,329,1.0,4.0,17,0.08,,,0.88,Wunderground v.1.15,2013-02-17 19:25:00,
2013-02-17 11:30:00,38.6,-2.5,30.23,NNW,328,0.0,4.0,17,0.08,,,0.88,Wunderground v.1.15,2013-02-17 19:30:00,
2013-02-17 11:35:00,38.7,-2.5,30.23,NNW,329,0.0,4.0,17,0.06,,,0.88,Wunderground v.1.15,2013-02-17 19:35:00,
2013-02-17 11:40:00,38.6,-2.5,30.24,NNW,328,0.0,4.0,17,0.04,,,0.88,Wunderground v.1.15,2013-02-17 19:40:00,
2013-02-17 11:45:00,38.6,-1.3,30.24,NE,46,0.0,4.0,18,0.00,,,0.88,Wunderground v.1.15,2013-02-17 19:45:00,
2013-02-17 11:50:00,38.5,-1.4,30.23,NW,326,0.0,4.0,18,0.00,,,0.88,Wunderground v.1.15,2013-02-17 19:50:00,
2013-02-17 11:55:00,38.3,0.7,30.24,East,86,0.0,4.0,20,0.00,,,0.88,Wunderground v.1.15,2013-02-17 19:55:00,
2013-02-17 12:00:00,38.4,0.7,30.23,ESE,103,0.0,4.0,20,0.00,,,0.89,Wunderground v.1.15,2013-02-17 20:00:00,
2013-02-17 12:05:00,38.5,-0.3,30.23,North,9,0.0,4.0,19,0.00,,,0.89,Wunderground v.1.15,2013-02-17 20:05:00,
2013-02-17 12:10:00,38.5,0.8,30.23,NE,40,1.0,1.0,20,0.00,,,0.89,Wunderground v.1.15,2013-02-17 20:10:00,
2013-02-17 12:15:00,38.6,-0.2,30.23,NNE,15,0.0,4.0,19,0.00,,,0.89,Wunderground v.1.15,2013-02-17 20:15:00,
2013-02-17 12:20:00,38.7,-0.1,30.23,NW,316,0.0,4.0,19,0.00,,,0.89,Wunderground v.1.15,2013-02-17 20:20:00,
2013-02-17 12:25:00,39.0,-2.2,30.23,NW,316,0.0,4.0,17,0.00,,,0.89,Wunderground v.1.15,2013-02-17 20:25:00,
2013-02-17 12:30:00,39.1,-2.1,30.23,North,5,0.0,4.0,17,0.00,,,0.89,Wunderground v.1.15,2013-02-17 20:30:00,
2013-02-17 12:35:00,39.5,-3.1,30.22,North,5,0.0,4.0,16,0.00,,,0.89,Wunderground v.1.15,2013-02-17 20:35:00,
2013-02-17 12:40:00,39.4,-3.2,30.22,ENE,66,0.0,4.0,16,0.00,,,0.89,Wunderground v.1.15,2013-02-17 20:40:00,
2013-02-17 12:45:00,39.2,-0.8,30.22,ESE,103,1.0,4.0,18,0.00,,,0.90,Wunderground v.1.15,2013-02-17 20:45:00,
2013-02-17 12:50:00,39.3,1.5,30.22,NNW,344,1.0,4.0,20,0.00,,,0.90,Wunderground v.1.15,2013-02-17 20:50:00,
2013-02-17 12:55:00,39.7,-0.4,30.22,NNW,334,1.0,4.0,18,0.00,,,0.90,Wunderground v.1.15,2013-02-17 20:55:00,
2013-02-17 13:00:00,40.1,-2.6,30.22,NNW,345,1.0,4.0,16,0.00,,,0.90,Wunderground v.1.15,2013-02-17 21:00:00,
2013-02-17 13:05:00,40.1,-0.1,30.22,North,5,1.0,4.0,18,0.00,,,0.90,Wunderground v.1.15,2013-02-17 21:05:00,
2013-02-17 13:10:00,40.3,2.3,30.21,North,5,0.0,4.0,20,0.00,,,0.90,Wunderground v.1.15,2013-02-17 21:10:00,
2013-02-17 13:15:00,40.5,3.6,30.22,North,5,0.0,4.0,21,0.00,,,0.90,Wunderground v.1.15,2013-02-17 21:15:00,
2013-02-17 13:20:00,40.6,3.6,30.21,NNE,27,0.0,4.0,21,0.00,,,0.91,Wunderground v.1.15,2013-02-17 21:20:00,
2013-02-17 13:25:00,40.2,11.2,30.21,SSW,210,0.0,4.0,30,0.00,,,0.91,Wunderground v.1.15,2013-02-17 21:25:00,
2013-02-17 13:30:00,40.0,22.8,30.21,WSW,255,0.0,4.0,50,0.00,,,0.91,Wunderground v.1.15,2013-02-17 21:30:00,
2013-02-17 13:35:00,39.9,23.2,30.21,West,281,1.0,4.0,51,0.00,,,0.91,Wunderground v.1.15,2013-02-17 21:35:00,
2013-02-17 13:40:00,40.1,22.0,30.21,WNW,297,0.0,4.0,48,0.00,,,0.91,Wunderground v.1.15,2013-02-17 21:40:00,
2013-02-17 13:45:00,40.3,17.9,30.21,North,354,0.0,4.0,40,0.00,,,0.91,Wunderground v.1.15,2013-02-17 21:45:00,
2013-02-17 13:50:00,40.4,15.5,30.21,NNW,342,0.0,4.0,36,0.00,,,0.91,Wunderground v.1.15,2013-02-17 21:50:00,
2013-02-17 13:55:00,40.4,20.2,30.21,NNW,342,0.0,4.0,44,0.00,,,0.91,Wunderground v.1.15,2013-02-17 21:55:00,
2013-02-17 14:00:00,40.5,18.6,30.21,NNW,342,0.0,4.0,41,0.00,,,0.91,Wunderground v.1.15,2013-02-17 22:00:00,
2013-02-17 14:05:00,40.5,21.3,30.21,NNW,347,0.0,4.0,46,0.00,,,0.91,Wunderground v.1.15,2013-02-17 22:05:00,
2013-02-17 14:10:00,40.6,23.4,30.21,NNW,347,0.0,4.0,50,0.00,,,0.91,Wunderground v.1.15,2013-02-17 22:10:00,
2013-02-17 14:15:00,40.9,21.2,30.21,NNE,20,0.0,4.0,45,0.00,,,0.91,Wunderground v.1.15,2013-02-17 22:15:00,
2013-02-17 14:25:00,41.1,21.3,30.20,NW,319,1.0,4.0,45,0.00,,,0.91,Wunderground v.1.15,2013-02-17 22:25:00,
2013-02-17 14:30:00,41.1,26.6,30.20,East,79,1.0,4.0,56,0.00,,,0.91,Wunderground v.1.15,2013-02-17 22:30:00,
2013-02-17 14:35:00,41.2,27.5,30.20,ENE,68,1.0,4.0,58,0.00,,,0.91,Wunderground v.1.15,2013-02-17 22:35:00,
2013-02-17 14:40:00,41.4,25.1,30.20,ENE,70,0.0,4.0,52,0.00,,,0.91,Wunderground v.1.15,2013-02-17 22:40:00,
2013-02-17 14:45:00,41.4,26.4,30.20,NNE,12,0.0,4.0,55,0.00,,,0.91,Wunderground v.1.15,2013-02-17 22:45:00,
2013-02-17 14:50:00,41.5,29.0,30.20,NNE,19,0.0,4.0,61,0.00,,,0.91,Wunderground v.1.15,2013-02-17 22:50:00,
2013-02-17 14:55:00,41.5,28.2,30.20,NNE,19,0.0,4.0,59,0.00,,,0.92,Wunderground v.1.15,2013-02-17 22:55:00,
2013-02-17 15:00:00,41.3,28.4,30.20,SSE,155,0.0,4.0,60,0.00,,,0.92,Wunderground v.1.15,2013-02-17 23:00:00,
2013-02-17 15:05:00,41.1,31.0,30.20,SSE,150,0.0,4.0,67,0.00,,,0.92,Wunderground v.1.15,2013-02-17 23:05:00,
2013-02-17 15:10:00,41.0,28.6,30.19,NE,41,0.0,4.0,61,0.00,,,0.92,Wunderground v.1.15,2013-02-17 23:10:00,
2013-02-17 15:15:00,40.9,27.2,30.19,NNE,23,1.0,4.0,58,0.00,,,0.92,Wunderground v.1.15,2013-02-17 23:15:00,
2013-02-17 15:20:00,41.0,27.3,30.19,NNE,21,0.0,4.0,58,0.00,,,0.92,Wunderground v.1.15,2013-02-17 23:20:00,
2013-02-17 15:25:00,40.8,23.6,30.19,NW,326,0.0,4.0,50,0.00,,,0.92,Wunderground v.1.15,2013-02-17 23:25:00,
2013-02-17 15:30:00,40.6,21.4,30.19,NE,55,1.0,1.0,46,0.00,,,0.92,Wunderground v.1.15,2013-02-17 23:30:00,
2013-02-17 15:35:00,40.5,22.8,30.19,NNE,22,0.0,4.0,49,0.00,,,0.92,Wunderground v.1.15,2013-02-17 23:35:00,
2013-02-17 15:40:00,40.4,21.2,30.19,NW,326,0.0,4.0,46,0.00,,,0.92,Wunderground v.1.15,2013-02-17 23:40:00,
2013-02-17 15:50:00,40.3,22.1,30.19,WNW,284,1.0,1.0,48,0.00,,,0.92,Wunderground v.1.15,2013-02-17 23:50:00,
2013-02-17 15:55:00,40.3,22.1,30.18,NNE,18,1.0,4.0,48,0.00,,,0.92,Wunderground v.1.15,2013-02-17 23:55:00,
2013-02-17 16:00:00,40.2,23.0,30.18,NW,318,0.0,4.0,50,0.00,,,0.92,Wunderground v.1.15,2013-02-18 00:00:00,
2013-02-17 16:05:00,40.0,22.4,30.18,ENE,58,0.0,4.0,49,0.00,,,0.92,Wunderground v.1.15,2013-02-18 00:05:00,
2013-02-17 16:10:00,40.0,22.8,30.18,ENE,68,0.0,4.0,50,0.00,,,0.92,Wunderground v.1.15,2013-02-18 00:10:00,
2013-02-17 16:15:00,39.9,20.8,30.18,North,352,0.0,4.0,46,0.00,,,0.92,Wunderground v.1.15,2013-02-18 00:15:00,
2013-02-17 16:20:00,39.7,22.1,30.18,North,4,1.0,1.0,49,0.00,,,0.92,Wunderground v.1.15,2013-02-18 00:20:00,
2013-02-17 16:25:00,39.5,20.9,30.18,North,4,1.0,4.0,47,0.00,,,0.92,Wunderground v.1.15,2013-02-18 00:25:00,
2013-02-17 16:30:00,39.4,19.3,30.18,NE,41,0.0,4.0,44,0.00,,,0.92,Wunderground v.1.15,2013-02-18 00:30:00,
2013-02-17 16:35:00,39.3,16.4,30.18,NE,41,0.0,4.0,39,0.00,,,0.92,Wunderground v.1.15,2013-02-18 00:35:00,
2013-02-17 16:40:00,39.3,13.9,30.17,NE,41,0.0,4.0,35,0.00,,,0.92,Wunderground v.1.15,2013-02-18 00:40:00,
2013-02-17 16:45:00,39.3,11.1,30.17,NE,40,0.0,4.0,31,0.00,,,0.92,Wunderground v.1.15,2013-02-18 00:45:00,
2013-02-17 16:50:00,39.3,8.9,30.17,NE,39,0.0,4.0,28,0.00,,,0.92,Wunderground v.1.15,2013-02-18 00:50:00,
2013-02-17 16:55:00,39.3,8.0,30.17,NE,40,0.0,4.0,27,0.00,,,0.92,Wunderground v.1.15,2013-02-18 00:55:00,
2013-02-17 17:00:00,39.3,5.5,30.17,NE,40,0.0,4.0,24,0.00,,,0.92,Wunderground v.1.15,2013-02-18 01:00:00,
2013-02-17 17:05:00,39.3,4.5,30.17,NE,40,0.0,4.0,23,0.00,,,0.92,Wunderground v.1.15,2013-02-18 01:05:00,
2013-02-17 17:10:00,39.3,3.6,30.17,NE,40,0.0,4.0,22,0.00,,,0.92,Wunderground v.1.15,2013-02-18 01:10:00,
2013-02-17 17:15:00,39.2,3.5,30.17,NW,317,0.0,4.0,22,0.00,,,0.92,Wunderground v.1.15,2013-02-18 01:15:00,
2013-02-17 17:20:00,39.1,4.4,30.17,NW,318,0.0,4.0,23,0.00,,,0.92,Wunderground v.1.15,2013-02-18 01:20:00,
2013-02-17 17:25:00,38.9,5.1,30.17,West,259,0.0,4.0,24,0.00,,,0.92,Wunderground v.1.15,2013-02-18 01:25:00,
2013-02-17 17:30:00,38.8,5.9,30.17,West,260,0.0,4.0,25,0.00,,,0.92,Wunderground v.1.15,2013-02-18 01:30:00,
2013-02-17 17:35:00,38.6,6.6,30.16,WNW,293,0.0,4.0,26,0.00,,,0.92,Wunderground v.1.15,2013-02-18 01:35:00,
2013-02-17 17:40:00,38.6,5.7,30.16,North,6,0.0,4.0,25,0.00,,,0.92,Wunderground v.1.15,2013-02-18 01:40:00,
2013-02-17 17:45:00,38.4,5.6,30.16,North,6,0.0,4.0,25,0.00,,,0.92,Wunderground v.1.15,2013-02-18 01:45:00,
2013-02-17 17:50:00,38.3,5.5,30.16,North,6,0.0,4.0,25,0.00,,,0.92,Wunderground v.1.15,2013-02-18 01:50:00,
2013-02-17 17:55:00,38.1,4.4,30.16,North,7,0.0,4.0,24,0.00,,,0.92,Wunderground v.1.15,2013-02-18 01:55:00,
2013-02-17 18:00:00,38.0,4.3,30.16,North,6,0.0,4.0,24,0.00,,,0.92,Wunderground v.1.15,2013-02-18 02:00:00,
2013-02-17 18:05:00,37.9,3.3,30.16,North,6,0.0,4.0,23,0.00,,,0.92,Wunderground v.1.15,2013-02-18 02:05:00,
2013-02-17 18:10:00,37.7,2.2,30.16,North,6,0.0,4.0,22,0.00,,,0.92,Wunderground v.1.15,2013-02-18 02:10:00,
2013-02-17 18:15:00,37.7,1.2,30.15,North,6,1.0,4.0,21,0.00,,,0.92,Wunderground v.1.15,2013-02-18 02:15:00,
2013-02-17 18:20:00,37.6,1.1,30.15,NNE,16,1.0,1.0,21,0.00,,,0.92,Wunderground v.1.15,2013-02-18 02:20:00,
2013-02-17 18:25:00,37.5,0.0,30.15,WNW,303,0.0,4.0,20,0.00,,,0.92,Wunderground v.1.15,2013-02-18 02:25:00,
2013-02-17 18:30:00,37.4,-0.1,30.15,NW,307,0.0,4.0,20,0.00,,,0.92,Wunderground v.1.15,2013-02-18 02:30:00,
2013-02-17 18:35:00,37.3,-0.2,30.15,NW,306,0.0,4.0,20,0.00,,,0.92,Wunderground v.1.15,2013-02-18 02:35:00,
2013-02-17 18:40:00,37.3,-1.3,30.15,WNW,297,0.0,4.0,19,0.00,,,0.92,Wunderground v.1.15,2013-02-18 02:40:00,
2013-02-17 18:45:00,37.2,-1.4,30.15,NNE,26,1.0,4.0,19,0.00,,,0.92,Wunderground v.1.15,2013-02-18 02:45:00,
2013-02-17 18:50:00,37.2,-1.4,30.15,NE,37,1.0,1.0,19,0.00,,,0.92,Wunderground v.1.15,2013-02-18 02:50:00,
2013-02-17 18:55:00,37.1,-1.4,30.15,NE,37,0.0,4.0,19,0.00,,,0.92,Wunderground v.1.15,2013-02-18 02:55:00,
2013-02-17 19:00:00,37.0,-0.4,30.15,NNW,340,0.0,4.0,20,0.00,,,0.92,Wunderground v.1.15,2013-02-18 03:00:00,
2013-02-17 19:05:00,36.8,-0.6,30.15,NNW,340,0.0,4.0,20,0.00,,,0.92,Wunderground v.1.15,2013-02-18 03:05:00,
2013-02-17 19:10:00,36.7,-0.7,30.15,NNW,340,0.0,4.0,20,0.00,,,0.92,Wunderground v.1.15,2013-02-18 03:10:00,
2013-02-17 19:15:00,36.5,0.2,30.15,NNW,340,0.0,4.0,21,0.00,,,0.92,Wunderground v.1.15,2013-02-18 03:15:00,
2013-02-17 19:20:00,36.5,0.2,30.15,NNE,15,1.0,1.0,21,0.00,,,0.92,Wunderground v.1.15,2013-02-18 03:20:00,
2013-02-17 19:25:00,36.3,0.0,30.15,NNE,30,1.0,4.0,21,0.00,,,0.92,Wunderground v.1.15,2013-02-18 03:25:00,
2013-02-17 19:30:00,36.1,-0.1,30.15,NNE,30,1.0,1.0,21,0.00,,,0.92,Wunderground v.1.15,2013-02-18 03:30:00,
2013-02-17 19:35:00,36.0,-0.2,30.15,NNE,30,0.0,4.0,21,0.00,,,0.92,Wunderground v.1.15,2013-02-18 03:35:00,
2013-02-17 19:40:00,35.8,-0.4,30.15,NNE,18,0.0,4.0,21,0.00,,,0.92,Wunderground v.1.15,2013-02-18 03:40:00,
2013-02-17 19:50:00,35.5,-0.7,30.15,NNE,19,1.0,1.0,21,0.00,,,0.92,Wunderground v.1.15,2013-02-18 03:50:00,
2013-02-17 19:55:00,35.4,-0.7,30.15,North,351,1.0,2.0,21,0.00,,,0.92,Wunderground v.1.15,2013-02-18 03:55:00,
2013-02-17 20:00:00,35.5,-1.7,30.15,NE,49,1.0,1.0,20,0.00,,,0.92,Wunderground v.1.15,2013-02-18 04:00:00,
2013-02-17 20:05:00,35.4,-1.8,30.15,East,84,1.0,4.0,20,0.00,,,0.92,Wunderground v.1.15,2013-02-18 04:05:00,
2013-02-17 20:10:00,35.4,-2.9,30.15,ENE,75,0.0,4.0,19,0.00,,,0.92,Wunderground v.1.15,2013-02-18 04:10:00,
2013-02-17 20:15:00,35.3,-2.9,30.15,ESE,110,0.0,4.0,19,0.00,,,0.92,Wunderground v.1.15,2013-02-18 04:15:00,
2013-02-17 20:20:00,35.2,-3.0,30.15,North,359,0.0,4.0,19,0.00,,,0.92,Wunderground v.1.15,2013-02-18 04:20:00,
2013-02-17 20:25:00,35.2,-3.0,30.15,East,79,0.0,4.0,19,0.00,,,0.92,Wunderground v.1.15,2013-02-18 04:25:00,
2013-02-17 20:30:00,35.4,-2.9,30.15,ESE,105,1.0,1.0,19,0.00,,,0.92,Wunderground v.1.15,2013-02-18 04:30:00,
2013-02-17 20:35:00,35.7,-3.7,30.15,North,349,1.0,2.0,18,0.00,,,0.92,Wunderground v.1.15,2013-02-18 04:35:00,
2013-02-17 20:40:00,35.9,-3.6,30.15,NNW,336,1.0,4.0,18,0.00,,,0.92,Wunderground v.1.15,2013-02-18 04:40:00,
2013-02-17 20:45:00,36.0,-3.5,30.15,SE,131,1.0,4.0,18,0.00,,,0.92,Wunderground v.1.15,2013-02-18 04:45:00,
2013-02-17 20:50:00,36.0,-3.5,30.15,NNE,20,1.0,1.0,18,0.00,,,0.92,Wunderground v.1.15,2013-02-18 04:50:00,
2013-02-17 20:55:00,36.0,-3.5,30.15,SSW,211,1.0,2.0,18,0.00,,,0.92,Wunderground v.1.15,2013-02-18 04:55:00,
2013-02-17 21:00:00,36.0,-3.5,30.15,NE,45,1.0,1.0,18,0.00,,,0.92,Wunderground v.1.15,2013-02-18 05:00:00,
2013-02-17 21:05:00,36.0,-3.5,30.15,WSW,246,1.0,4.0,18,0.00,,,0.92,Wunderground v.1.15,2013-02-18 05:05:00,
2013-02-17 21:10:00,36.1,-3.4,30.15,West,263,0.0,4.0,18,0.00,,,0.92,Wunderground v.1.15,2013-02-18 05:10:00,
2013-02-17 21:15:00,36.1,-3.4,30.15,NW,323,0.0,4.0,18,0.00,,,0.92,Wunderground v.1.15,2013-02-18 05:15:00,
2013-02-17 21:20:00,36.2,-3.3,30.15,West,259,0.0,4.0,18,0.00,,,0.92,Wunderground v.1.15,2013-02-18 05:20:00,
2013-02-17 21:25:00,36.2,-3.3,30.15,West,259,0.0,4.0,18,0.00,,,0.92,Wunderground v.1.15,2013-02-18 05:25:00,
2013-02-17 21:35:00,36.3,-3.2,30.15,West,270,0.0,4.0,18,0.00,,,0.92,Wunderground v.1.15,2013-02-18 05:35:00,
2013-02-17 21:40:00,36.3,-3.2,30.14,West,269,0.0,4.0,18,0.00,,,0.92,Wunderground v.1.15,2013-02-18 05:40:00,
2013-02-17 21:45:00,36.4,-3.2,30.14,NNE,23,0.0,4.0,18,0.00,,,0.92,Wunderground v.1.15,2013-02-18 05:45:00,
2013-02-17 21:50:00,36.5,-3.1,30.14,WSW,246,0.0,4.0,18,0.00,,,0.92,Wunderground v.1.15,2013-02-18 05:50:00,
2013-02-17 21:55:00,36.6,-3.0,30.14,East,83,0.0,4.0,18,0.00,,,0.92,Wunderground v.1.15,2013-02-18 05:55:00,
2013-02-17 22:00:00,36.7,-2.9,30.14,WNW,303,1.0,1.0,18,0.00,,,0.92,Wunderground v.1.15,2013-02-18 06:00:00,
2013-02-17 22:10:00,36.8,-2.8,30.14,WNW,301,0.0,4.0,18,0.00,,,0.92,Wunderground v.1.15,2013-02-18 06:10:00,
2013-02-17 22:15:00,36.8,-2.8,30.14,West,281,0.0,4.0,18,0.00,,,0.92,Wunderground v.1.15,2013-02-18 06:15:00,
2013-02-17 22:20:00,36.8,-4.0,30.14,WNW,283,1.0,1.0,17,0.00,,,0.92,Wunderground v.1.15,2013-02-18 06:20:00,
2013-02-17 22:25:00,36.9,-3.9,30.13,West,274,1.0,3.0,17,0.00,,,0.92,Wunderground v.1.15,2013-02-18 06:25:00,
2013-02-17 22:30:00,36.9,-3.9,30.13,NE,47,1.0,4.0,17,0.00,,,0.92,Wunderground v.1.15,2013-02-18 06:30:00,
2013-02-17 22:35:00,36.9,-3.9,30.13,WNW,301,1.0,4.0,17,0.00,,,0.92,Wunderground v.1.15,2013-02-18 06:35:00,
2013-02-17 22:40:00,36.9,-3.9,30.13,WNW,286,0.0,4.0,17,0.00,,,0.92,Wunderground v.1.15,2013-02-18 06:40:00,
2013-02-17 22:45:00,36.9,-3.9,30.13,NNE,18,0.0,4.0,17,0.00,,,0.92,Wunderground v.1.15,2013-02-18 06:45:00,
2013-02-17 22:50:00,36.8,-4.0,30.13,NNE,18,0.0,4.0,17,0.00,,,0.92,Wunderground v.1.15,2013-02-18 06:50:00,
2013-02-17 22:55:00,36.8,-4.0,30.13,North,359,0.0,4.0,17,0.00,,,0.92,Wunderground v.1.15,2013-02-18 06:55:00,
2013-02-17 23:00:00,36.7,-4.1,30.13,NNW,335,1.0,4.0,17,0.00,,,0.92,Wunderground v.1.15,2013-02-18 07:00:00,
2013-02-17 23:05:00,36.6,-3.0,30.12,SW,221,0.0,4.0,18,0.00,,,0.92,Wunderground v.1.15,2013-02-18 07:05:00,
2013-02-17 23:10:00,36.4,-3.2,30.12,WNW,295,0.0,4.0,18,0.00,,,0.92,Wunderground v.1.15,2013-02-18 07:10:00,
2013-02-17 23:15:00,36.4,-3.2,30.12,NE,39,1.0,4.0,18,0.00,,,0.92,Wunderground v.1.15,2013-02-18 07:15:00,
2013-02-17 23:20:00,36.3,-3.2,30.12,WNW,292,2.0,2.0,18,0.00,,,0.92,Wunderground v.1.15,2013-02-18 07:20:00,
2013-02-17 23:30:00,36.0,-1.3,30.11,WNW,290,2.0,4.0,20,0.00,,,0.92,Wunderground v.1.15,2013-02-18 07:30:00,
2013-02-17 23:35:00,35.7,2.4,30.11,NNE,20,2.0,4.0,24,0.00,,,0.92,Wunderground v.1.15,2013-02-18 07:35:00,
2013-02-17 23:40:00,35.5,3.9,30.11,West,264,1.0,4.0,26,0.00,,,0.92,Wunderground v.1.15,2013-02-18 07:40:00,
2013-02-17 23:45:00,35.3,5.4,30.11,SW,221,1.0,4.0,28,0.00,,,0.92,Wunderground v.1.15,2013-02-18 07:45:00,
2013-02-17 23:50:00,35.1,4.4,30.11,West,269,1.0,4.0,27,0.00,,,0.92,Wunderground v.1.15,2013-02-18 07:50:00,
2013-02-17 23:55:00,35.1,2.7,30.10,North,358,1.0,4.0,25,0.00,,,0.92,Wunderground v.1.15,2013-02-18 07:55:00,